This demonstration page uses our WeatherBlox Daily Observations layout. Learn more.

Left ArrowRight Arrow

47.50024, -111.30081

Hourly Observations for April 27, 2022

Temp ( °F °C ) Dew Point ( °F °C ) Humidity (%) Winds ( mph kmh ) Pressure ( in mb ) Visibility ( mi km ) Precip ( " mm )
12:53 am 00:53 Clear 40 4.4 24 -4.4 53 53 SSW 16 26 29.93 1014 10 16 0.00 0.00
1:53 am 01:53 Clear 39 3.9 22 -5.6 50 50 SW 20 31 29.94 1014 10 16 0.00 0.00
2:53 am 02:53 Clear 38 3.3 20 -6.7 48 48 SW 17 28 29.94 1014 10 16 0.00 0.00
3:53 am 03:53 Clear 37 2.8 19 -7.2 48 48 SW 18 30 29.94 1014 10 16 0.00 0.00
4:53 am 04:53 Clear 36 2.2 18 -7.8 48 48 SW 13 20 29.96 1015 10 16 0.00 0.00
5:53 am 05:53 Clear 35 1.7 18 -7.8 50 50 SW 14 22 29.99 1016 10 16 0.00 0.00
6:53 am 06:53 Sunny 35 1.7 18 -7.8 50 50 SW 18 30 29.99 1016 10 16 0.00 0.00
7:53 am 07:53 Sunny 38 3.3 19 -7.2 46 46 SSW 15 24 29.98 1015 10 16 0.00 0.00
8:53 am 08:53 Sunny 42 5.6 20 -6.7 41 41 SW 21 33 29.98 1015 10 16 0.00 0.00
9:53 am 09:53 Sunny 46 7.8 16 -8.9 30 30 SW 20 31 29.96 1014 10 16 0.00 0.00
10:53 am 10:53 Sunny 49 9.4 14 -10 25 25 SW 22 35 29.95 1014 10 16 0.00 0.00
11:53 am 11:53 Sunny 51 10.6 13 -10.6 22 22 WSW 15 24 29.95 1014 10 16 0.00 0.00
12:53 pm 12:53 Sunny 51 10.6 12 -11.1 21 21 WSW 12 19 29.92 1013 10 16 0.00 0.00
1:53 pm 13:53 Sunny 55 12.8 14 -10 20 20 W 10 17 29.89 1012 10 16 0.00 0.00
2:53 pm 14:53 Sunny 54 12.2 17 -8.3 23 23 SSW 10 17 29.88 1012 10 16 0.00 0.00
3:53 pm 15:53 Cloudy 54 12.2 17 -8.3 23 23 SW 8 13 29.87 1012 10 16 0.00 0.00
4:53 pm 16:53 Partly Cloudy 56 13.3 20 -6.7 24 24 SSW 10 17 29.89 1012 10 16 0.00 0.00
5:53 pm 17:53 Sunny 53 11.7 32 0 45 45 S 15 24 29.89 1012 10 16 0.00 0.00
6:53 pm 18:53 Sunny 53 11.7 30 -1.1 41 41 S 10 17 29.89 1012 10 16 0.00 0.00
7:53 pm 19:53 Sunny 49 9.4 30 -1.1 48 48 S 12 19 29.90 1013 10 16 0.00 0.00
8:53 pm 20:53 Mostly Clear 46 7.8 31 -0.6 56 56 S 13 20 29.91 1013 10 16 0.00 0.00
9:53 pm 21:53 Cloudy 44 6.7 32 0 63 63 SSW 12 19 29.93 1013 10 16 0.00 0.00
10:53 pm 22:53 Clear 40 4.4 24 -4.4 53 53 W 9 15 29.95 1014 10 16 0.00 0.00
11:53 pm 23:53 Clear 33 0.6 20 -6.7 58 58 WSW 9 15 29.98 1015 10 16 0.00 0.00

Powered by AerisWeather